Wind_Speed
25 24 25 24 24 24 24 24 25 25 25 26 27 27 27 28 29 29 30 31 31 32 33 34 34 35 36 37 38 39 40 41 42 43 43 44 45 46 47 48 49 50 51
26 25 25 25 25 25 25 25 25 26 27 27 28 28 28 29 29 30 31 32 33 34 34 35 36 37 38 39 40 41 42 43 44 45 46 46 46 46 47 49 50 52 53
26 26 26 26 26 26 26 26 26 27 28 28 29 29 30 30 31 32 33 34 35 35 36 37 38 39 40 41 42 43 44 45 46 47 48 48 48 47 47 48 50 52 54
27 26 26 27 27 27 27 27 28 28 29 29 30 31 31 32 33 34 35 35 36 37 38 39 40 41 42 43 44 45 46 47 48 49 50 51 51 52 50 50 51 52 54
27 27 27 28 28 28 28 28 29 29 30 30 31 32 33 33 34 35 36 37 38 39 40 41 42 43 44 44 45 47 48 49 50 51 51 52 53 54 55 54 54 55 56
28 28 28 28 28 29 29 29 30 30 31 31 32 33 34 35 36 37 38 38 39 40 41 43 43 44 45 46 47 49 50 51 52 53 54 55 56 57 58 58 58 59 59
28 28 28 29 30 30 30 30 31 32 32 33 34 35 36 36 37 38 39 40 41 42 43 44 45 45 47 48 49 50 51 53 54 55 56 57 58 60 61 62 62 63 63
28 28 29 29 30 30 31 32 32 33 33 34 35 36 37 38 39 40 41 42 43 44 44 45 46 47 49 50 51 52 53 54 56 57 58 60 61 62 64 65 66 66 65
29 29 29 30 31 31 32 33 33 34 34 35 36 37 38 39 40 41 42 43 44 45 46 47 48 50 51 52 53 54 55 56 58 59 61 62 63 64 66 67 68 69 68
29 30 30 31 32 32 33 33 34 35 36 37 37 38 39 40 41 43 44 44 45 46 48 49 50 52 53 54 55 56 57 59 60 62 63 64 65 67 67 68 69 71 72
30 31 32 32 33 33 34 34 35 35 36 37 38 39 41 42 43 44 45 46 47 48 50 51 52 54 55 56 57 59 60 62 63 65 65 66 67 68 69 70 72 73 75
32 33 33 33 33 34 34 35 36 37 38 39 40 41 43 44 44 45 46 48 49 50 52 53 54 56 57 58 60 61 63 64 65 66 66 67 69 70 72 73 75 77 78
33 34 34 33 34 35 35 36 37 38 39 40 42 43 44 44 46 47 48 49 50 52 53 55 56 58 59 61 62 64 65 66 66 67 68 70 71 73 75 76 78 79 80
34 34 34 34 35 36 36 37 38 39 40 41 42 43 44 45 46 47 49 50 52 54 55 57 58 60 62 63 65 66 66 67 68 69 70 72 74 76 78 79 79 80 79
34 35 35 35 36 36 37 38 39 40 41 42 43 44 45 46 47 49 50 52 54 55 57 59 61 62 64 65 66 67 68 68 69 71 73 75 76 78 79 79 79 79 79
36 36 36 37 37 37 38 39 40 41 42 43 44 44 46 47 49 51 52 54 56 58 60 61 63 64 65 67 68 68 69 70 71 73 75 77 78 78 78 78 77 77 77
36 36 36 37 37 38 39 40 40 41 42 43 44 46 47 49 51 52 54 56 58 60 62 63 65 66 67 68 69 70 72 73 74 76 77 77 77 77 77 75 74 74 74
36 36 36 37 38 38 39 40 40 42 43 44 45 47 49 50 52 54 56 58 60 62 63 65 66 66 67 69 71 72 74 75 76 77 77 76 76 75 74 73 73 72 71
36 37 37 37 38 39 40 40 41 42 44 45 47 48 50 52 54 56 58 60 62 63 64 65 66 67 69 71 73 74 75 76 76 76 76 75 74 73 73 73 71 69 66
37 37 38 39 39 40 41 42 43 44 45 47 48 50 52 54 56 58 60 61 63 64 65 66 67 69 70 72 74 76 77 77 76 75 74 73 72 71 71 71 69 66 62
37 37 38 39 40 41 42 43 44 45 47 48 49 51 53 55 57 59 61 63 64 65 66 67 69 71 72 74 76 77 78 77 76 74 72 71 70 69 69 68 65 62 59
37 38 39 40 41 42 43 44 45 46 48 49 51 53 55 57 58 60 62 63 65 66 68 70 71 72 74 75 76 76 77 77 75 72 71 69 68 67 65 62 60 57 56
38 39 40 41 42 43 44 45 46 48 49 51 53 54 56 57 59 61 63 65 67 68 70 72 73 74 75 76 76 76 76 74 73 70 69 68 66 63 60 57 55 54 52
39 41 42 43 44 44 45 47 48 49 51 52 54 55 57 59 61 63 64 66 69 71 73 74 75 76 76 77 77 76 73 71 69 68 67 65 61 58 55 53 52 50 47
41 42 43 44 45 46 47 48 49 51 52 54 56 57 59 61 63 65 67 69 71 73 75 76 77 78 78 77 76 74 71 69 67 66 63 59 55 53 51 50 49 46 43
43 44 45 45 46 47 48 50 51 53 54 56 57 59 61 63 65 67 69 70 73 74 76 78 79 79 78 76 73 71 68 66 64 62 58 55 53 51 49 47 45 42 40
Wind_Direction
282 283 284 285 285 286 287 289 291 292 294 295 296 296 296 296 296 296 296 296 297 297 297 297 297 297 296 295 294 294 294 293 293 292 291 291 291 290 289 289 288 287 286
282 282 283 284 284 285 286 288 290 291 293 294 294 294 295 296 297 297 297 297 298 298 298 298 298 298 297 296 296 295 295 295 294 293 292 291 290 289 289 289 289 289 288
281 281 281 282 283 284 284 286 288 290 292 292 293 293 294 295 296 297 297 298 298 298 298 298 298 298 297 297 297 296 296 296 295 294 294 292 291 289 288 288 288 287 288
280 280 280 281 282 283 284 286 288 289 291 292 292 293 294 295 296 297 297 298 298 298 298 298 299 298 298 298 297 297 297 297 296 296 295 295 294 292 290 289 288 287 287
279 279 280 281 281 282 284 285 287 289 290 291 291 293 294 295 296 297 297 298 298 298 298 298 299 299 299 299 299 298 298 298 298 297 296 296 295 295 294 293 291 290 289
279 280 280 280 281 282 283 285 286 288 289 290 291 292 294 295 296 296 297 298 298 298 299 299 299 299 299 299 299 300 299 299 298 298 297 297 297 296 295 294 293 292 292
280 280 280 281 281 282 283 284 286 287 288 290 291 292 293 294 295 296 297 298 298 298 299 299 299 299 299 300 300 300 299 299 299 299 298 298 298 297 297 296 295 294 293
280 280 280 281 281 282 282 283 285 286 288 289 290 292 293 295 295 296 297 298 298 298 299 299 299 299 300 300 300 300 299 299 299 299 299 299 299 298 298 297 296 295 294
281 281 281 281 282 282 282 283 284 286 288 289 290 292 293 294 295 296 297 298 298 298 299 299 299 300 300 300 300 300 300 300 300 300 300 300 300 299 299 299 298 297 296
282 282 282 283 283 283 283 284 285 286 288 289 290 292 293 294 295 296 297 298 298 299 299 299 300 300 300 300 300 300 300 301 301 301 301 301 300 300 300 299 299 298 298
283 284 284 284 284 284 284 285 286 287 288 289 291 292 293 294 295 296 297 298 298 299 299 300 300 300 300 300 300 301 301 302 302 302 302 301 301 301 300 300 299 299 299
284 283 283 284 284 284 284 285 286 287 288 290 291 292 293 294 295 296 297 298 298 299 300 300 301 301 301 301 302 302 302 302 302 302 302 302 302 301 301 301 300 300 299
284 284 284 284 284 284 284 285 286 287 288 290 292 293 293 294 295 296 297 298 299 300 300 301 301 301 302 302 303 303 303 302 302 302 302 302 302 302 302 301 301 300 300
285 285 285 284 284 285 285 286 287 288 289 291 292 293 293 294 295 296 297 298 299 300 301 301 302 302 303 303 303 303 303 303 303 303 303 303 303 303 302 302 301 301 301
285 285 286 285 286 286 286 287 288 289 291 292 293 293 294 295 296 297 297 299 300 301 301 302 302 303 303 303 303 303 304 304 304 304 303 303 303 303 303 302 302 301 301
285 285 285 285 286 287 287 288 289 290 291 292 293 294 295 296 296 297 298 299 300 301 302 303 303 304 304 304 304 304 304 304 304 304 304 304 304 303 303 303 302 302 302
285 286 287 287 287 288 289 289 290 291 292 293 294 295 295 296 297 298 299 300 301 302 303 303 304 304 304 304 304 304 305 305 305 305 305 304 304 304 303 303 303 303 303
286 286 287 287 288 288 289 290 291 292 293 294 295 295 296 297 298 299 300 301 302 303 304 304 304 305 305 305 305 305 305 306 306 306 305 305 305 304 303 303 303 303 303
285 286 287 288 288 289 291 292 292 293 294 295 296 297 297 298 299 300 301 302 303 304 304 304 305 305 305 305 305 305 306 306 306 306 306 305 305 304 304 304 304 304 303
286 287 287 288 289 291 291 292 293 294 295 296 297 298 299 299 300 301 302 303 303 304 304 305 306 306 306 306 306 306 306 306 306 306 306 305 305 305 305 305 305 304 303
286 287 288 289 291 292 293 293 295 296 297 297 298 299 300 301 301 302 303 303 304 305 305 306 306 306 306 307 307 307 307 307 307 306 305 305 305 305 305 305 304 304 303
287 288 289 291 292 293 294 295 296 297 298 299 299 300 301 301 302 303 304 305 305 305 306 306 307 307 307 307 307 307 307 307 306 306 306 306 306 305 305 304 304 303 303
289 291 292 293 294 295 296 297 298 299 299 300 301 301 302 303 303 304 305 305 306 306 307 307 308 308 308 308 307 307 307 306 306 306 306 306 306 305 305 304 304 304 303
291 293 294 295 296 296 297 298 299 300 301 301 302 302 303 304 305 305 306 306 307 307 308 308 309 309 309 308 307 307 307 306 306 306 307 306 306 305 304 304 304 303 302
293 294 295 296 296 297 298 299 300 301 302 303 303 304 304 305 306 306 307 307 307 308 309 309 309 309 309 308 308 307 307 306 306 306 307 306 305 304 303 303 304 303 301
293 294 295 296 297 298 299 300 301 302 303 304 304 305 305 306 306 307 307 308 308 309 309 309 309 309 309 309 308 308 307 307 307 307 307 307 306 305 304 303 303 301 299
Height
5830 5829 5827 5826 5824 5823 5821 5820 5818 5816 5814 5812 5810 5808 5806 5803 5801 5798 5795 5792 5789 5786 5783 5780 5777 5774 5771 5768 5764 5761 5758 5755 5751 5748 5745 5742 5738 5734 5730 5726 5723 5720 5717
5825 5823 5822 5820 5819 5817 5816 5814 5812 5811 5809 5806 5804 5802 5799 5797 5794 5791 5788 5785 5782 5779 5776 5773 5770 5766 5763 5759 5756 5752 5749 5745 5741 5738 5734 5732 5729 5724 5720 5716 5711 5707 5704
5818 5817 5816 5814 5813 5811 5810 5808 5806 5804 5802 5800 5798 5795 5793 5790 5787 5785 5782 5778 5775 5772 5768 5765 5761 5758 5754 5750 5746 5742 5739 5735 5731 5726 5722 5719 5716 5714 5711 5706 5701 5696 5692
5812 5811 5809 5808 5806 5805 5803 5802 5800 5798 5796 5793 5791 5788 5786 5783 5780 5777 5774 5771 5767 5764 5760 5756 5753 5749 5745 5741 5737 5732 5728 5724 5720 5715 5710 5706 5701 5698 5697 5695 5689 5684 5680
5805 5804 5803 5801 5800 5798 5797 5795 5793 5791 5789 5786 5784 5781 5778 5776 5773 5769 5766 5763 5759 5755 5751 5747 5743 5739 5735 5730 5726 5722 5717 5712 5708 5703 5699 5694 5689 5684 5680 5679 5675 5670 5665
5799 5797 5796 5795 5793 5792 5790 5788 5786 5784 5782 5779 5776 5774 5771 5768 5764 5761 5758 5754 5750 5746 5742 5738 5733 5729 5724 5720 5715 5710 5705 5700 5695 5690 5685 5680 5676 5670 5666 5662 5659 5654 5650
5792 5790 5789 5788 5786 5784 5783 5781 5779 5776 5774 5771 5769 5766 5763 5759 5756 5752 5749 5745 5741 5737 5732 5728 5723 5718 5714 5709 5704 5699 5694 5688 5683 5678 5672 5666 5661 5655 5650 5645 5641 5637 5633
5784 5783 5782 5780 5779 5777 5775 5773 5771 5768 5766 5763 5760 5757 5754 5751 5747 5743 5740 5735 5731 5727 5722 5717 5712 5707 5702 5697 5692 5687 5681 5676 5670 5664 5658 5652 5646 5640 5634 5628 5622 5619 5616
5777 5776 5774 5773 5771 5769 5767 5765 5763 5760 5758 5755 5752 5749 5745 5742 5738 5734 5730 5725 5721 5716 5711 5706 5701 5696 5691 5685 5680 5674 5668 5662 5656 5650 5643 5636 5630 5623 5617 5610 5603 5598 5594
5770 5768 5766 5765 5763 5761 5759 5757 5754 5752 5749 5746 5743 5739 5736 5732 5728 5724 5720 5715 5710 5705 5700 5695 5690 5684 5678 5673 5667 5661 5655 5648 5641 5634 5628 5620 5613 5606 5599 5592 5585 5578 5572
5762 5760 5758 5756 5754 5752 5750 5748 5745 5743 5740 5736 5733 5730 5726 5722 5718 5714 5709 5704 5699 5694 5689 5683 5678 5672 5666 5659 5653 5647 5640 5633 5626 5619 5611 5604 5596 5589 5581 5574 5566 5559 5550
5754 5752 5750 5748 5746 5743 5741 5739 5736 5733 5730 5727 5723 5720 5716 5712 5707 5703 5698 5693 5687 5682 5677 5671 5665 5658 5652 5646 5639 5633 5625 5618 5610 5602 5595 5587 5578 5571 5562 5554 5546 5538 5529
5745 5743 5741 5739 5737 5734 5732 5729 5726 5723 5720 5717 5713 5709 5705 5700 5696 5691 5686 5681 5675 5670 5664 5658 5651 5645 5638 5631 5624 5617 5610 5602 5594 5586 5577 5569 5560 5552 5543 5534 5525 5516 5507
5736 5734 5732 5729 5727 5725 5722 5719 5716 5713 5710 5706 5702 5698 5694 5689 5684 5679 5674 5669 5663 5657 5651 5644 5638 5631 5624 5616 5608 5601 5593 5585 5577 5568 5560 5551 5542 5532 5523 5513 5504 5494 5485
5727 5724 5722 5720 5717 5715 5712 5709 5706 5703 5699 5695 5691 5687 5682 5678 5673 5667 5662 5656 5650 5644 5637 5630 5623 5616 5608 5600 5591 5584 5576 5568 5560 5551 5541 5532 5522 5512 5501 5492 5482 5472 5463
5717 5715 5712 5710 5707 5705 5702 5699 5695 5692 5688 5684 5680 5675 5671 5666 5660 5655 5649 5643 5637 5630 5623 5616 5608 5600 5592 5583 5574 5566 5558 5550 5541 5532 5523 5513 5502 5492 5481 5471 5461 5451 5441
5708 5705 5703 5700 5697 5694 5691 5688 5684 5681 5677 5673 5668 5663 5659 5653 5648 5642 5636 5629 5623 5616 5608 5600 5592 5584 5575 5566 5557 5548 5540 5532 5522 5512 5502 5493 5482 5471 5461 5452 5443 5433 5422
5697 5695 5692 5690 5687 5684 5680 5677 5673 5669 5665 5661 5656 5651 5646 5641 5635 5629 5622 5615 5608 5601 5593 5585 5576 5568 5559 5549 5540 5530 5521 5513 5503 5492 5482 5472 5462 5451 5440 5432 5424 5415 5405
5687 5685 5682 5679 5676 5673 5670 5666 5662 5658 5654 5649 5644 5639 5633 5628 5621 5615 5608 5601 5593 5585 5577 5569 5560 5551 5542 5532 5522 5511 5502 5494 5484 5474 5463 5452 5442 5433 5421 5412 5405 5397 5388
5677 5674 5672 5669 5666 5662 5659 5655 5651 5646 5642 5637 5632 5626 5620 5614 5607 5601 5593 5586 5578 5570 5561 5553 5543 5534 5525 5514 5503 5491 5482 5474 5465 5455 5444 5434 5423 5413 5402 5393 5385 5378 5370
5667 5664 5661 5658 5655 5651 5647 5643 5639 5634 5629 5624 5619 5613 5606 5600 5593 5586 5578 5570 5562 5554 5545 5537 5527 5517 5507 5496 5485 5473 5461 5452 5444 5435 5425 5416 5405 5395 5385 5375 5367 5359 5352
5656 5653 5650 5647 5643 5640 5636 5631 5627 5622 5617 5611 5605 5599 5592 5585 5578 5571 5563 5554 5545 5537 5528 5518 5509 5499 5488 5478 5466 5455 5443 5431 5422 5414 5406 5397 5387 5378 5368 5359 5351 5343 5337
5646 5642 5639 5636 5632 5628 5624 5619 5614 5609 5604 5598 5591 5585 5578 5571 5563 5555 5547 5538 5528 5519 5510 5500 5491 5481 5470 5459 5447 5436 5425 5413 5403 5395 5387 5378 5369 5360 5352 5344 5336 5329 5323
5635 5631 5628 5624 5620 5616 5611 5606 5601 5596 5590 5584 5578 5571 5563 5556 5548 5539 5530 5521 5511 5501 5491 5481 5471 5461 5451 5439 5427 5417 5407 5397 5386 5377 5369 5361 5352 5344 5337 5330 5323 5316 5310
5623 5620 5616 5612 5608 5603 5598 5593 5588 5582 5577 5570 5563 5556 5548 5540 5532 5523 5514 5504 5494 5482 5471 5461 5450 5440 5431 5420 5407 5395 5387 5377 5368 5360 5352 5345 5337 5330 5323 5317 5310 5304 5298
5611 5608 5604 5599 5595 5590 5585 5580 5575 5569 5562 5556 5548 5541 5533 5524 5516 5507 5498 5487 5476 5465 5453 5440 5429 5418 5408 5398 5388 5377 5368 5359 5350 5342 5335 5328 5322 5315 5309 5303 5297 5292 5287